Regional Weather Roundup
Issued by NWS

Home | Current Version | Previous Version | Graphics & Text | Print | Product List | Glossary Off
Versions: 1 2 3 4 5 6 7 8 9 10 11 12 13 14 15 16 17 18 19 20 21 22 23 24 25 26 27 28 29 30 31 32 33 34 35 36 37 38 39 40 41 42 43 44 45 46 47 48 49 50

173
ASUS43 KMPX 260101
RWRMN
WEATHER ROUNDUP FOR MINNESOTA
NATIONAL WEATHER SERVICE TWIN CITIES/CHANHASSEN MN
700 PM CST SAT FEB 25 2017


NOTE: "FAIR" INDICATES FEW OR NO CLOUDS BELOW 12,000 FEET WITH NO
SIGNIFICANT WEATHER AND/OR OBSTRUCTIONS TO VISIBILITY. N/A MEANS
CURRENT SKY AND/OR WEATHER CONDITIONS ARE NOT AVAILABLE.

MNZ060>063-068>070-260200-
   Twin Cities Metro

CITY           SKY/WX    TMP DP  RH WIND       PRES   REMARKS
TWIN CITIES    CLOUDY    29  19  66 SW13      29.87S WCI  19
ST PAUL        CLOUDY    30  20  66 SW14G21   29.88S WCI  19
CRYSTAL        CLOUDY    30  19  63 S10       29.84F WCI  21
BLAINE         CLOUDY    34  19  55 SW10      29.84F WCI  26
LAKEVILLE      PTCLDY    25  19  80 SW5       29.88F WCI  19
EDEN PRAIRIE   CLEAR     28  19  69 SW13      29.86S WCI  17
SOUTH ST PAUL  MOCLDY    29  19  66 SW13G18   29.88S WCI  19
LAKE ELMO      CLOUDY    32  21  64 SW15      29.87S WCI  22
$$
MNZ001>005-007-008-013>017-022>024-027-028-260200-
   Northwest Minnesota

CITY           SKY/WX    TMP DP  RH WIND       PRES   REMARKS
BEMIDJI        CLEAR     24  18  80 W7        29.71S WCI  15
HALLOCK        CLEAR     14  10  85 N5        29.77S WCI   6
ROSEAU         MOCLDY    19  12  73 W8        29.72S WCI   9
WARROAD        MOCLDY    18  10  73 W8        29.71F WCI   7
THIEF RVR FALL CLEAR     21  16  81 NW13      29.74F WCI   9
CROOKSTON      CLEAR     23  19  86 N10       29.76S WCI  12
FOSSTON        FLURRIES  21  18  86 NW5       29.73S WCI  15
DETROIT LAKES  CLOUDY    28  27  93 W6        29.74S WCI  22
MOORHEAD       CLOUDY    28  23  80 NW6       29.76F WCI  22
PARK RAPIDS    FLURRIES  26  20  77 NW8       29.72F WCI  18
MAHNOMEN       FAIR      24  22  91 W6        29.72F WCI  17
$$
MNZ006-009>011-018-025>026-260200-
   North Central Minnesota

CITY           SKY/WX    TMP DP  RH WIND       PRES   REMARKS
BAUDETTE       FLURRIES  20  13  74 W15       29.69R WCI   6
FLAG ISLAND    MOCLDY    18  10  73 W12       29.68R WCI   5
INTL FALLS     CLOUDY    20  15  81 CALM      29.68F
WASKISH        MOCLDY    18  14  86 W7        29.70F WCI   8
BIG FORK       CLOUDY    27  19  74 SW6       29.69S WCI  20
LONGVILLE      PTCLDY    27  21  80 SW3       29.73S
GRAND RAPIDS   CLOUDY    25  18  74 SW3       29.73F
CRANE LAKE     FLURRIES  19  16  86 CALM      29.71F
ORR            CLOUDY    21  16  79 CALM      29.66S
COOK           CLOUDY    21  16  79 S3        29.68F
WALKER         CLOUDY    25  20  82 SW7       29.71F WCI  17
$$
MNZ012-019>021-037-260200-
   Northeast Minnesota

CITY           SKY/WX    TMP DP  RH WIND       PRES   REMARKS
DULUTH         MOCLDY    27  17  66 SW12      29.72F WCI  17
ELY            FLURRIES  19  12  73 S5        29.68F WCI  13
HIBBING        LGT SNOW  24  17  74 W6        29.70S WCI  17
EVELETH        MIX PCPN  24  14  66 SW3       29.71F
DULUTH HARBOR  CLOUDY    28  18  64 CALM      29.78F
TWO HARBORS    PTCLDY    23  16  74 CALM      29.72F
SILVER BAY     MOCLDY    19  14  79 CALM      29.72F
GRAND MARAIS     N/A     24   8  50 W7        29.75S WCI  16
G MARAIS ARPRT CLOUDY    16   1  53 SW5       29.67S WCI   9
$$
MNZ029>031-032-039>041-046>048-054>057-064-260200-
   West Central Minnesota

CITY           SKY/WX    TMP DP  RH WIND       PRES   REMARKS
FERGUS FALLS   LGT SNOW  27  27 100 N3        29.80S VSB 1
WHEATON        CLOUDY    28  27  93 NW6       29.78S WCI  22
MORRIS         CLOUDY    34  21  60 S14G21    29.75F WCI  24
ALEXANDRIA     CLOUDY    32  22  66 SW13      29.75F WCI  22
ELBOW LAKE     LGT SNOW  28  27  99 CALM      29.76F
WADENA         LGT SNOW  27  25  93 NW3       29.74S
GLENWOOD       CLOUDY    30  21  69 S13       29.76F WCI  20
APPLETON       CLOUDY    32  21  64 S9        29.78F WCI  24
BENSON         CLOUDY    34  19  55 SW12      29.79F WCI  25
ORTONVILLE     CLOUDY    34  21  60 S5        29.76F WCI  30
MADISON        CLOUDY    34  25  69 SW15      29.79F WCI  24
WILLMAR        FAIR      30  23  74 S6G16     29.82S WCI  24
$$
MNZ033>034-036-042>043-049>051-058-059-260200-
   Central Minnesota

CITY           SKY/WX    TMP DP  RH WIND       PRES   REMARKS
ST CLOUD       CLOUDY    31  22  69 S10       29.79F WCI  22
SAUK CENTRE    FAIR      31  22  69 SW15      29.77S WCI  20
PAYNESVILLE    PTCLDY    31  22  68 SW13G18   29.80S WCI  21
AITKIN         LGT SNOW  28  23  80 S3        29.74F
PINE RIVER     LGT SNOW  27  27 100 CALM      29.78S
BRAINERD       LGT SNOW  27  26  96 S6        29.75F VSB 3/4 WCI  20
STAPLES        LGT SNOW  27  27 100 SW3       29.74F
LONG PRAIRIE   CLOUDY    32  21  64 S7        29.75F WCI  26
LITTLE FALLS   CLOUDY    32  19  59 SW9       29.77F WCI  24
LITCHFIELD     CLOUDY    30  21  69 SW6       29.82S WCI  24
BUFFALO        PTCLDY    31  21  68 S13G18    29.84S WCI  21
MAPLE LAKE     PTCLDY    32  24  72 SW5       29.83S WCI  27
HUTCHINSON     PTCLDY    30  23  74 S10G16    29.85S WCI  21
$$
MNZ037-044-045-052-053-260200-
   East Central Minnesota

CITY           SKY/WX    TMP DP  RH WIND       PRES   REMARKS
PRINCETON      CLOUDY    32  21  64 S8        29.81F WCI  25
MORA           CLOUDY    32  21  64 SW7       29.81F WCI  26
CAMBRIDGE      CLOUDY    34  19  55 S7        29.80F WCI  28
RUSH CITY      CLOUDY    30  18  59 SW7       29.82S WCI  23
MOOSE LAKE     FLURRIES  28  23  80 SW9       29.75F WCI  20
HINCKLEY       CLOUDY    30  21  69 SW8       29.79F WCI  23
CLOQUET        CLOUDY    27  16  63 SW7       29.74F WCI  19
MCGREGOR       CLOUDY    28  25  86 SW6       29.76S WCI  22
$$
MNZ071>073-080-081-089-090-097-098-260200-
   Southwest Minnesota

CITY           SKY/WX    TMP DP  RH WIND       PRES   REMARKS
MONTEVIDEO     PTCLDY    30  21  69 SW12      29.82F WCI  21
GRANITE FALLS  PTCLDY    31  24  74 S12       29.83F WCI  22
CANBY          PTCLDY    31  22  68 CALM      29.80F
MARSHALL       PTCLDY    28  20  71 SW15      29.82F WCI  16
REDWOOD FALLS  MOCLDY    29  18  63 SW15      29.84F WCI  18
OLIVIA         PTCLDY    30  23  74 S14       29.82F WCI  20
PIPESTONE      CLEAR     25  16  68 SW16      29.81F WCI  12
WINDOM         CLOUDY    27  16  63 S16       29.85F WCI  14
WORTHINGTON    CLOUDY    23  16  74 S15       29.85F WCI  10
JACKSON        CLOUDY    25  14  63 S12       29.88F WCI  14
TRACY          CLOUDY    28  19  69 SW16G22   29.83F WCI  16
SLAYTON        CLEAR     24  17  73 S15G23    29.84R WCI  11
$$
MNZ065>067-074>077-082>085-091>093-260200-
   South Central Minnesota

CITY           SKY/WX    TMP DP  RH WIND       PRES   REMARKS
MANKATO          N/A     25  19  78 S12       29.90S WCI  14
NEW ULM        CLOUDY    28  18  64 S14       29.87S WCI  17
ST JAMES       CLOUDY    27  19  74 S14       29.90S WCI  15
FAIRMONT       CLOUDY    24  17  74 S15       29.90F WCI  11
GLENCOE        PTCLDY    30  24  79 S10       29.85S WCI  21
FARIBAULT      CLOUDY    21  16  79 S7        29.90F WCI  13
OWATONNA       MOCLDY    21  16  79 S14       29.90F WCI   8
WASECA         CLOUDY    23  18  80 S15       29.92S WCI  10
ALBERT LEA     MOCLDY    21  16  79 S10       29.92F WCI  10
$$
MNZ078>079-086>088-094>096-260200-
   Southeast Minnesota

CITY           SKY/WX    TMP DP  RH WIND       PRES   REMARKS
ROCHESTER      PTCLDY    15  10  80 S10       29.92S WCI   2
RED WING       CLOUDY    27  16  63 W9        29.91S WCI  17
STANTON        PTCLDY    24  17  72 SW14      29.89S WCI  12
WINONA         CLOUDY    25  16  68 SW10G17   29.97R WCI  15
AUSTIN         CLOUDY    18  12  79 S9        29.93F WCI   6
PRESTON        CLEAR     18  12  76 SW9       29.94S WCI   7
$$
ABBREVIATIONS USED IN REMARKS
   TC - TEMPERATURES IN CELSIUS
  WCI - WIND CHILL INDEX
   HX - HEAT INDEX
  VSB - VISIBILITY
$$




USA.gov is the U.S. government's official web portal to all federal, state and local government web resources and services.